DECAYED

STARLINK-1816, 46714 (Decayed)

Orbit data source: Space-Track

STARLINK-1816, 46714 was a payload satellite owned by SpaceX/Seattle (US) in LEO that was launched on Sun, 18 Oct 2020 UTC via an FALCON 9 launch vehicle from the Air Force Eastern Test Range (AFETR). Payload-class satellites include a variety of spacecraft equipped with specific instruments for various scientific and technological missions. These include communications satellites like Starlink; space stations such as the ISS; scientific satellites like the Hubble; Earth observation satellites from companies like Planet Labs, Umbra, and HawkEye 360; GPS; miniature CubeSats for education and research; and military/defense satellites.

Not visible in the next 10 days
Identifier
46714, 2020-073AW
Orbit
Decayed
Country
Flag of USUS
Related business
Manufacturer
SpaceX/Seattle
Mission
Decayed Commercial Communications
Bus & Motor
STARLINK, Unknown motor
Mass
260 kg wet, ~248 kg dry
Launch date (UTC)
2020-10-18 (6 years ago)
Launch vehicle
FALCON 9
Launch site
Air Force Eastern Test Range (AFETR)
Object type
Payload
Rocket body
Debris
Shape & HBR
Box + 1 Pan, 10.1 m
Radar Cross Section
13.562 m², Large (>1 m²)

Expand to show TLE details & history
Last TLE update: 1 month ago

TLE from 1 month ago
0 STARLINK-1816
1 46714U 20073AW  26141.99013242  .11407429  12531-4  42589-3 0  9993
2 46714  53.0124 185.2583 0005614 309.6737  50.3815 16.43889143309395
Epoch: 2026-05-21T23:45Z
TLE epoch observation values (Epoch: 2026-05-21T23:45:47.441Z)
Latitude
-0°
Longitude
-50.81679°
Altitude
154.066 km
Speed
7.816 km/s
True Right ascension
12h 21m 01s
True Declination
0° 00' 00"
Sunlit
Object was in full shadow at epoch
Visualization orbit readout
Latitude
Unknown
Longitude
Unknown
Altitude
Unknown
Speed
Unknown
Apparent Right ascension
Unknown
Apparent Declination
Unknown
Sunlit
N/A
Visualization observer readout
Local Sidereal Time
13:27:19
Azimuth
Unknown
Elevation
Unknown
Doppler factor
Unknown
Orbital elements
Apogee altitude
159.439 km
Perigee altitude
152.103 km
Semi-major axis
6,533.908 km
Eccentricity
0.00056
Inclination
53.0124°
RAAN
185.2583°
Arg. of periapsis
309.6737°
True anomaly
50.43108°
Mean anomaly
50.3815°
Eccentric anomaly
50.40629°
Mean motion
4.10945 °/min
Orbital period
87.6 mins
BSTAR
0.00042589
Loading maneuver chart data...
Computing Atmospheric mass density...

Documentation

Showing up to 5 results
|